User: anonymous   Login
Location: Caltech
(34.1382°N, 118.1253°W)
Time: 07:43:54
(UTC-07:00)
Language:

Tiros 1 despin weight - Orbit

View from above orbital plane
View from above orbital plane
View from above satellite
View from above satellite

Ground track
Ground track

The orbit data is extracted from the following two-line orbital elements,

1 00115U 60002D   18173.16816041 -.00000049  00000-0  21276-4 0  9998
2 00115  48.1653 165.8974 0035586 288.3561  71.3483 14.83303868105147
Epoch (UTC): 22 June 2018 04:02:09
Eccentricity: 0.0035586
inclination: 48.1653°
perigee height: 594 km
apogee height: 644 km
right ascension of ascending node: 165.8974°
argument of perigee: 288.3561°
revolutions per day: 14.83303868
mean anomaly at epoch: 71.3483°
orbit number at epoch: 10514

The dashed part of the orbit path shows where the satellite is in the earth's shadow,  

DLR